Weather History for Cairns, QU

Change the Weather History Date:

Friday, November 8, 2013

  Actual Average Record
Temperature  
Mean Temperature 79 °F -  
Max Temperature 86 °F 87 °F 89 °F (2014)
Min Temperature 72 °F 73 °F 62 °F (2014)
Cooling Degree Days 14    
Growing Degree Days 29 (Base 50)    
Moisture  
Dew Point 65 °F    
Average Humidity 62    
Maximum Humidity 83    
Minimum Humidity 34    
Precipitation  
Precipitation 0.00 in 0.16 in - ()
Sea Level Pressure  
Sea Level Pressure 29.90 in    
Wind  
Wind Speed 11 mph ()    
Max Wind Speed 21 mph    
Max Gust Speed -    
Visibility 6.7 miles    
Events      
Averages and records for this station are not official NWS values.
T = Trace of Precipitation, MM = Missing Value Source: Averaged Metar Reports

Daily Weather History Graph

Daily Weather History Graph

Search for Another Location

Airport:

Trip Planner

Search our weather history database for the weather conditions in past years. The results will help you decide how hot, cold, wet, or windy it might be!

Date:

Astronomy

Nov. 08, 2013 Rise Set
Actual Time 5:36 AM AEST 6:25 PM AEST
Civil Twilight 5:13 AM AEST 6:47 PM AEST
Nautical Twilight 4:46 AM AEST 7:14 PM AEST
Astronomical Twilight 4:19 AM AEST 7:42 PM AEST
Moon 9:52 AM AEST (11/8) 11:03 PM AEST (11/8)
Length of Visible Light 13h 34m
Length of Day
12h 48m
Waxing Crescent, 26% of the Moon is Illuminated
Nov 8
Waxing Crescent
Nov 10
First Quarter
Nov 18
Full
Nov 26
Last Quarter
Dec 3
New

Hourly Weather History & Observations

Time (AEST) Temp. Heat Index Dew Point Humidity Pressure Visibility Wind Dir Wind Speed Gust Speed Precip Events Conditions
12:00 AM 74 °F - 65 °F 67% 29.93 in - SSE 8.1 mph - -  
12:00 AM 73.4 °F - 66.2 °F 78% 29.92 in 6.2 mi SSE 8.1 mph - N/A   Partly Cloudy
12:30 AM 73.4 °F - 66.2 °F 78% 29.92 in 6.2 mi SSE 9.2 mph - N/A   Partly Cloudy
1:00 AM 74 °F - 65 °F 68% 29.91 in - SSE 9.2 mph - -  
1:00 AM 73.4 °F - 66.2 °F 78% 29.89 in 6.2 mi SSE 9.2 mph - N/A   Partly Cloudy
1:30 AM 73.4 °F - 66.2 °F 78% 29.89 in 6.2 mi South 9.2 mph - N/A   Partly Cloudy
2:00 AM 73.4 °F - 66.2 °F 78% 29.89 in 6.2 mi SSE 11.5 mph - N/A   Partly Cloudy
2:30 AM 73.4 °F - 64.4 °F 73% 29.86 in 6.2 mi SSE 10.4 mph - N/A   Partly Cloudy
3:00 AM 73 °F - 65 °F 71% 29.88 in - SSE 10.4 mph - -  
3:00 AM 73.4 °F - 66.2 °F 78% 29.86 in 6.2 mi SSE 10.4 mph - N/A   Partly Cloudy
3:30 AM 73.4 °F - 64.4 °F 73% 29.86 in 6.2 mi SSE 10.4 mph - N/A   Partly Cloudy
4:00 AM 73 °F - 65 °F 71% 29.89 in - SSE 10.4 mph - -  
4:00 AM 73.4 °F - 66.2 °F 78% 29.89 in 6.2 mi SSE 10.4 mph - N/A   Partly Cloudy
4:30 AM 71.6 °F - 66.2 °F 83% 29.89 in 6.2 mi SSE 9.2 mph - N/A   Partly Cloudy
5:00 AM 73.4 °F - 64.4 °F 73% 29.89 in 6.2 mi South 9.2 mph - N/A   Partly Cloudy
5:30 AM 73.4 °F - 64.4 °F 73% 29.89 in 6.2 mi South 9.2 mph - N/A   Partly Cloudy
6:00 AM 73 °F - 65 °F 68% 29.92 in - SSE 10.4 mph - -  
6:00 AM 73.4 °F - 64.4 °F 73% 29.92 in 6.2 mi SSE 10.4 mph - N/A   Scattered Clouds
6:30 AM 73.4 °F - 64.4 °F 73% 29.92 in 6.2 mi SSE 11.5 mph - N/A   Scattered Clouds
7:00 AM 75 °F - 65 °F 62% 29.94 in - SSE 11.5 mph - -  
7:00 AM 75.2 °F - 64.4 °F 69% 29.92 in 6.2 mi SSE 11.5 mph - N/A   Scattered Clouds
7:30 AM 77.0 °F - 64.4 °F 65% 29.95 in 6.2 mi SSE 11.5 mph - N/A   Scattered Clouds
8:00 AM 77.0 °F - 64.4 °F 65% 29.95 in 6.2 mi SSE 12.7 mph - N/A   Scattered Clouds
8:30 AM 80.6 °F 82.7 °F 66.2 °F 61% 29.95 in 6.2 mi SSE 15.0 mph - N/A   Partly Cloudy
9:00 AM 81 °F - 65 °F 49% 29.96 in 19 mi SE 13.8 mph - -   Partly Cloudy
9:00 AM 80.6 °F 82.3 °F 64.4 °F 58% 29.95 in 6.2 mi SE 13.8 mph - N/A   Scattered Clouds
9:30 AM 82.4 °F 83.9 °F 64.4 °F 54% 29.95 in 6.2 mi SE 15.0 mph - N/A   Partly Cloudy
10:00 AM 83 °F - 64 °F 43% 29.95 in - SE 19.6 mph - -  
10:00 AM 82.4 °F 83.9 °F 64.4 °F 54% 29.92 in 6.2 mi SE 19.6 mph - N/A   Partly Cloudy
10:30 AM 84.2 °F 85.6 °F 64.4 °F 51% 29.92 in 6.2 mi SE 18.4 mph - N/A   Partly Cloudy
11:00 AM 86.0 °F 87.3 °F 64.4 °F 48% 29.92 in 6.2 mi ESE 18.4 mph - N/A   Partly Cloudy
11:30 AM 84.2 °F 85.0 °F 62.6 °F 48% 29.92 in 6.2 mi ESE 18.4 mph - N/A   Partly Cloudy
12:00 PM 85 °F - 64 °F 39% 29.91 in - ESE 18.4 mph - -  
12:00 PM 86.0 °F 87.3 °F 64.4 °F 48% 29.89 in 6.2 mi ESE 18.4 mph - N/A   Partly Cloudy
12:30 PM 86.0 °F 86.6 °F 62.6 °F 45% 29.89 in 6.2 mi ESE 19.6 mph - N/A   Partly Cloudy
1:00 PM 85 °F - 63 °F 38% 29.89 in - ESE 18.4 mph - -  
1:00 PM 86.0 °F 86.6 °F 62.6 °F 45% 29.89 in 6.2 mi ESE 18.4 mph - N/A   Partly Cloudy
1:30 PM 86.0 °F 87.3 °F 64.4 °F 48% 29.86 in 6.2 mi ESE 20.7 mph - N/A   Partly Cloudy
2:00 PM 86.0 °F 87.3 °F 64.4 °F 48% 29.86 in 6.2 mi East 19.6 mph - N/A   Partly Cloudy
2:30 PM 84.2 °F 85.0 °F 62.6 °F 48% 29.86 in 6.2 mi ESE 18.4 mph - N/A   Partly Cloudy
3:00 PM 84 °F - 60 °F 34% 29.86 in 19 mi ESE 18.4 mph - -   Partly Cloudy
3:00 PM 84.2 °F 84.4 °F 60.8 °F 45% 29.86 in 6.2 mi ESE 18.4 mph - N/A   Partly Cloudy
3:30 PM 86.0 °F 86.1 °F 60.8 °F 43% 29.83 in 6.2 mi SE 17.3 mph - N/A   Partly Cloudy
4:00 PM 85 °F - 64 °F 40% 29.86 in - ESE 17.3 mph - -  
4:00 PM 84.2 °F 85.6 °F 64.4 °F 51% 29.83 in 6.2 mi ESE 17.3 mph - N/A   Partly Cloudy
4:30 PM 80.6 °F 81.8 °F 62.6 °F 54% 29.83 in 6.2 mi SE 18.4 mph - N/A   Partly Cloudy
5:00 PM 80.6 °F 81.8 °F 62.6 °F 54% 29.86 in 6.2 mi SE 17.3 mph - N/A   Partly Cloudy
5:30 PM 80.6 °F 82.3 °F 64.4 °F 58% 29.86 in 6.2 mi SE 16.1 mph - N/A   Partly Cloudy
6:00 PM 79 °F - 64 °F 52% 29.87 in - SE 15.0 mph - -  
6:00 PM 78.8 °F - 64.4 °F 61% 29.86 in 6.2 mi SE 15.0 mph - N/A   Partly Cloudy
6:30 PM 77.0 °F - 64.4 °F 65% 29.86 in 6.2 mi SSE 11.5 mph - N/A   Partly Cloudy
7:00 PM 76 °F - 65 °F 62% 29.90 in - SSE 6.9 mph - -  
7:00 PM 75.2 °F - 66.2 °F 73% 29.89 in 6.2 mi SSE 6.9 mph - N/A   Partly Cloudy
7:30 PM 75.2 °F - 66.2 °F 73% 29.89 in 6.2 mi SSE 6.9 mph - N/A   Partly Cloudy
8:00 PM 75.2 °F - 66.2 °F 73% 29.89 in 6.2 mi South 6.9 mph - N/A   Partly Cloudy
8:30 PM 75.2 °F - 66.2 °F 73% 29.92 in 6.2 mi SSE 5.8 mph - N/A   Scattered Clouds
9:00 PM 76 °F - 66 °F 63% 29.92 in - SSE 6.9 mph - -  
9:00 PM 75.2 °F - 66.2 °F 73% 29.92 in 6.2 mi SSE 6.9 mph - N/A   Scattered Clouds
9:30 PM 75.2 °F - 66.2 °F 73% 29.92 in 6.2 mi South 8.1 mph - N/A   Scattered Clouds
10:00 PM 75 °F - 66 °F 66% 29.94 in - South 6.9 mph - -  
10:00 PM 75.2 °F - 66.2 °F 73% 29.92 in 6.2 mi South 6.9 mph - N/A   Scattered Clouds
10:30 PM 75.2 °F - 66.2 °F 73% 29.92 in 6.2 mi South 8.1 mph - N/A   Partly Cloudy
11:00 PM 75.2 °F - 66.2 °F 73% 29.92 in 6.2 mi South 8.1 mph - N/A   Partly Cloudy
11:30 PM 75.2 °F - 66.2 °F 73% 29.92 in 6.2 mi South 8.1 mph - N/A   Partly Cloudy